This is the latest recevied weather packets stored in our database for station/object KC5EZZ-2. If no packets are shown the sender has not sent any weather packets the latest 10 day(s).
| Time | Temp. | Humidity | Pressure | Rain* | Wind** | Luminosity | Snow |
|---|---|---|---|---|---|---|---|
| 1778070392 | 12.22° C | - | - | 0 mm | 3.58 m/s, 14° | - | - |
| 1778070092 | 12.22° C | - | - | 0 mm | 4.47 m/s, 325° | - | - |
| 1778069790 | 12.22° C | - | - | 0 mm | 3.58 m/s, 41° | - | - |
| 1778069490 | 12.22° C | - | - | 0 mm | 3.13 m/s, 27° | - | - |
| 1778069191 | 12.22° C | - | - | 0 mm | 4.02 m/s, 4° | - | - |
| 1778068889 | 12.22° C | - | - | 0 mm | 5.36 m/s, 18° | - | - |
| 1778068589 | 12.22° C | - | - | 0 mm | 4.92 m/s, 0° | - | - |
| 1778068290 | 12.78° C | - | - | 0 mm | 4.02 m/s, 335° | - | - |
| 1778067987 | 13.33° C | - | - | 0 mm | 1.34 m/s, 100° | - | - |
| 1778067688 | 13.33° C | - | - | 0 mm | 2.68 m/s, 20° | - | - |
| 1778067426 | 13.33° C | - | - | 0 mm | 4.02 m/s, 14° | - | - |
| 1778067388 | 13.33° C | - | - | 0 mm | 4.02 m/s, 14° | - | - |
| 1778067339 | 13.33° C | - | - | 0 mm | 4.02 m/s, 28° | - | - |
| 1778067086 | 13.33° C | - | - | 0 mm | 4.02 m/s, 28° | - | - |
| 1778066786 | 13.89° C | - | - | 0 mm | 4.47 m/s, 39° | - | - |
| 1778066486 | 13.89° C | - | - | 0 mm | 4.92 m/s, 4° | - | - |
| 1778066183 | 13.89° C | - | - | 0 mm | 4.47 m/s, 347° | - | - |
| 1778065884 | 13.89° C | - | - | 0 mm | 5.81 m/s, 342° | - | - |
| 1778065585 | 13.89° C | - | - | 0 mm | 3.58 m/s, 340° | - | - |
| 1778065282 | 13.89° C | - | - | 0 mm | 3.58 m/s, 345° | - | - |
| 1778064983 | 14.44° C | - | - | 0 mm | 3.13 m/s, 27° | - | - |
| 1778064683 | 13.89° C | - | - | 0 mm | 3.58 m/s, 21° | - | - |
| 1778064381 | 13.89° C | - | - | 0 mm | 3.13 m/s, 10° | - | - |
| 1778064082 | 14.44° C | - | - | 0 mm | 2.68 m/s, 359° | - | - |
| 1778063782 | 14.44° C | - | - | 0 mm | 3.58 m/s, 20° | - | - |
* Rain latest hour (hover to see other rain measurements)
** Current wind speed in m/s (hover to see current wind gust speed)